ONEWEB-0315 (49101 NORAD) Tracking and Keplerian Element Data

This shows tracking and keplerian element data for the satellite.

Feedback or suggestion? Click here.




ElementValue
Catalog49101
NameONEWEB-0315
Epoch Orbit1140
Epoch Day300.91667824
Epoch Year2021
RAAN344.162
Inclination87.5368
Eccentricity0.0020679
Argument of Perigee67.6862
Mean Anonmoly28.6974
Mean Motion14.85795529
Decay Rate0.00026258
L11 49101U 21075AC 21300.91667824 .00026258 00000-0 29987-2 0 9999
L22 49101 87.5368 344.1620 0020679 67.6862 28.6974 14.85795529 11400

Live tracking and technical data element details for ONEWEB-0315 (NORAD 49101). ONEWEB-0315 can be tracked NOW for your location showing map with azimuth and elevation plus other details from your city location.

Track the satellite on the map from your city or location and see movement details for azimuth, elevation, latitude, longitude, range, height, and movement on the map or in text.







IsCatalogInMostPopularTable: catalog: 49101, numindb: 13
Update: records affected: 1



GetName: 49101 ONEWEB-0315

Hit Count: updated at: Thu, 28 Oct 2021 11:57:44 GMT